Preview of NWS' New Version of Forecast
This preview is not operational and should not be used for support decisions.
Latest weather observations around

Seattle, Seattle Boeing Field (KBFI)

Using English Units (Switch to International System of Units)
Date/ Time (PDT) Wind (mph) Vis. (mi) Weather Sky Cond. Temp (°F) Rel. Humidity Wind Chill (°F) Heat Index (°F) Pressure Precip. (in)
Air Dwpt 6 hour Altimeter (inHg) Sea level (inHg) 1 hr 3 hr 6 hr
Max Min
Apr 26 06:53 SE 7 10 Partly Cloudy SCT150 46 40     79% 42   30.14 30.13      
Apr 26 05:53 Calm 10 Partly Cloudy SCT150 48 40     73%     30.11 30.11      
Apr 26 04:53 Calm 10 Mostly Cloudy BKN150 48 40     73%     30.11 30.11      
Apr 26 03:53 Calm 10 Clear CLR 51 40     65%     30.1 30.09      
Apr 26 02:53 Calm 10 Mostly Clear FEW120 52 40     63%     30.09 30.09      
Apr 26 01:53 Calm 10 Cloudy BKN100 OVC120 52 40     63%     30.08 30.08      
Apr 26 00:53 Calm 10 Clear CLR 54 38     55%     30.08 30.08      
Apr 25 23:53 Calm 10 Clear CLR 54 38     55%     30.07 30.07      
Apr 25 22:53 Calm 10 Clear CLR 54 37     53%     30.08 30.07      
Apr 25 21:53 N 3 10 Clear CLR 55 39     55%     30.07 30.07      
Apr 25 20:53 Calm 10 Clear CLR 56 39     53%     30.06 30.06      
Apr 25 19:53 NW 5 10 Clear   55 39     55%     30.06 30.05      
Apr 25 18:53 NW 5 10 Clear CLR 56 40     55%     30.05 30.05      
Apr 25 17:53 NW 6 10 Clear CLR 57 41     55%     30.06 30.06      
Apr 25 16:53 NW 7 10 Clear CLR 58 40     51%     30.07 30.07      
Apr 25 15:53 NW 7 10 Clear CLR 59 41     51%     30.09 30.09      
Apr 25 14:53 NW 9 10 Clear CLR 59 42     53%     30.11 30.11      
Apr 25 13:53 WNW 13 10 Clear CLR 58 42     55%     30.12 30.12      
Apr 25 12:53 NW 8 10 Clear CLR 57 41     55%     30.15 30.14      
Apr 25 11:53 NW 8 10 Cloudy OVC180 56 42     60%     30.17 30.17      
Apr 25 10:53 7 10 Clear CLR 55 40     57%     30.19 30.18      
Apr 25 09:53 NE 8 10 Clear CLR 52 39     61%     30.2 30.19      
Apr 25 08:53 N 6 10 Cloudy OVC200 51 38     61%     30.22 30.22      
Apr 25 07:53 NNE 6 10 Cloudy OVC200 48 39     71% 45   30.22 30.22      
Apr 25 06:53 3 10 Clear CLR 45 38     76% 44   30.22 30.22      
Apr 25 05:53 Calm 10 Clear CLR 44 37     76%     30.23 30.23      
Apr 25 04:53 Calm 10 Clear CLR 43 37     79%     30.24 30.24      
Apr 25 03:53 Calm 10 Clear CLR 45 37     74%     30.25 30.25      
Apr 25 02:53 Calm 10 Clear CLR 46 37     71%     30.26 30.26      
Apr 25 01:53 Calm 10 Clear CLR 47 37     68%     30.26 30.26      
Apr 25 00:53 Calm 10 Clear CLR 48 37     66%     30.27 30.27      
Apr 24 23:53 N 3 10 Clear CLR 50 35     56%     30.28 30.28      
Apr 24 22:53 N 5 10 Clear CLR 52 34     50%     30.29 30.29      
Apr 24 21:53 3 10 Clear CLR 53 34     48%     30.29 30.29      
Apr 24 20:53 5 10 Clear CLR 55 32     41%     30.29 30.29      
Apr 24 19:53 N 6 10 Clear CLR 57 27     31%     30.28 30.28      
Apr 24 18:53 NW 8 10 Clear CLR 59 33     37%     30.29 30.29      
Apr 24 17:53 WNW 8 10 Clear CLR 60 30     32%     30.29 30.29      
Apr 24 16:53 NW 10 10 Clear CLR 60 34     37%     30.3 30.3      
Apr 24 15:53 NNW 7 10 Mostly Clear FEW050 60 35     39%     30.32 30.32      
Apr 24 14:53 WNW 7 10 Clear CLR 60 38     44%     30.33 30.33      
Apr 24 13:53 Calm 10 Partly Cloudy SCT041 58 39     49%     30.34 30.34      
Apr 24 12:53 Calm 10 Mostly Cloudy SCT037 BKN044 57 41     55%     30.35 30.35      
Apr 24 11:53 NNW 3 10 Mostly Cloudy SCT026 BKN035 53 39     59%     30.37 30.36      
Apr 24 10:53 N 5 10 Cloudy BKN026 OVC035 52 39     61%     30.37 30.37      
Apr 24 09:53 3 10 Cloudy BKN026 OVC035 51 40     65%     30.37 30.36      
Apr 24 09:28 SE 3 10 Cloudy BKN026 OVC034 51 40     65%     30.37        
Apr 24 08:53 Calm 10 Cloudy SCT022 SCT031 OVC036 51 39     63%     30.37 30.36      
Apr 24 07:53 Calm 10 Mostly Cloudy BKN037 49 39     69%     30.36 30.35      
Apr 24 06:53 Calm 10 Cloudy BKN027 OVC041 49 38     66%     30.34 30.33      
Apr 24 05:53 Calm 10 Cloudy OVC025 49 39     69%     30.32 30.32      
Apr 24 04:53 Calm 10 Mostly Cloudy BKN035 48 39     71%     30.32 30.31      
Apr 24 03:53 Calm 10 Cloudy BKN036 BKN044 OVC060 49 38     66%     30.3 30.3      
Apr 24 02:53 E 5 10 Cloudy BKN036 BKN044 OVC060 49 39     69% 47   30.29 30.29      
Apr 24 01:53 E 3 10 Cloudy FEW031 BKN047 OVC060 49 39     69% 48   30.29 30.28      
Apr 24 00:53 ENE 5 10 Cloudy OVC043 50 39     66%     30.28 30.27      
Apr 23 23:53 ENE 3 10 Cloudy OVC041 51 39     63%     30.26 30.26      
Apr 23 22:53 ENE 3 10 Cloudy OVC041 51 39     63%     30.25 30.25      
Apr 23 21:53 Calm 10 Cloudy BKN034 OVC047 52 40     63%     30.24 30.24      
Apr 23 20:53 5 10 Cloudy FEW039 OVC048 52 39     61%     30.22 30.22      
Apr 23 19:53 5 10 Cloudy BKN034 OVC047 53 39     59%     30.2 30.2      
Apr 23 18:53 NNE 6 10 Mostly Cloudy BKN048 BKN200 54 40     59%     30.2 30.19      
Apr 23 17:53 6 10 Mostly Cloudy SCT034 BKN041 BKN050 58 42     55%     30.19 30.19      
Apr 23 16:53 NNE 9 10 Mostly Cloudy BKN031 BKN055 60 45     57%     30.19 30.19      
Apr 23 16:35 NNE 9 10 Mostly Cloudy BKN031 BKN055 60 44     55%     30.19        
Apr 23 15:53 N 10 10 Mostly Cloudy BKN027 BKN034 BKN060 59 46     62%     30.19 30.19      
Apr 23 15:49 N 10 10 Mostly Cloudy BKN027 BKN034 BKN060 59 46     63%     30.19        
Apr 23 14:53 S 8 10 Mostly Cloudy FEW032 BKN060 BKN200 62 48     60%     30.19 30.19      
Apr 23 13:53 SSW 8 10 Mostly Cloudy BKN037 BKN045 62 49     62%     30.18 30.18      
Apr 23 12:53 S 10 10 Cloudy FEW029 OVC047 60 48     64%     30.18 30.18      
Apr 23 11:53 S 9 10 Mostly Cloudy FEW039 BKN050 59 48     67%     30.18 30.18      
Apr 23 10:53 5 10 Cloudy BKN015 BKN039 OVC050 58 48     70%     30.19 30.19      
Apr 23 09:53 S 9 10 Cloudy BKN015 BKN039 OVC050 56 48     75%     30.17 30.17      
Apr 23 08:53 SSW 8 10 Cloudy BKN013 OVC019 55 48     77%     30.19 30.18      
Apr 23 07:53 SSW 6 10 Cloudy BKN013 OVC019 54 48     80%     30.18 30.18      
Apr 23 06:53 SSE 6 10 Cloudy BKN013 OVC019 53 48     83%     30.17 30.16      
Apr 23 05:53 SE 5 10 Cloudy BKN013 OVC019 53 47     80%     30.18 30.17      
May 15 05:53 SSW 6 10 Cloudy OVC008 55 51     86%     29.92 29.92      
May 14 14:53 NNW 8 10 Clear CLR 83 51     33%   81 29.88 29.88      
May 13 17:53 NW 7 10 Clear CLR 81 47     30%   80 29.87 29.87      
May 13 11:53 Calm 10 Clear CLR 71 54     55%   70 29.95 29.94      
May 13 10:53 6 10 Clear CLR 69 53     57%     29.95 29.95      
May 13 08:53 ENE 3 10 Clear CLR 64 51     63%     29.98 29.97      
May 12 01:53 SE 6 10 Clear CLR 53 47     80%     30.19 30.19      
May 12 00:53 Calm 10 Clear CLR 57 46     67%     30.19 30.19      
May 11 17:53 3 10 Partly Cloudy SCT046 67 46     47%     30.2 30.2      
Jun 12 03:53 SSE 8 10 Mostly Cloudy BKN060 53 51     93%     30 30      
Jun 12 02:53 SSE 7 10 Mostly Cloudy BKN055 54 51     90%     30 29.99      
Jun 11 22:53 Calm 10 Clear CLR 61 49     64%     29.99 29.99      
Jun 11 14:53 NW 8 10 Clear   69 48     47%     30 29.99      
Jun 11 01:53 Calm 10 Mostly Cloudy BKN085 57 47     69%     29.97 29.97      
Jun 10 23:53 Calm 10 Cloudy OVC075 59 47     64%     29.95 29.95      
Jun 10 15:53 NNW 7 10 Clear   65 44     47%     29.85 29.85      
Jun 08 08:44 SSE 8 10 Light Rain SCT007 BKN038 OVC095 57 57     100%     29.66   0    
Jun 07 14:53 6 10 Cloudy SCT140 OVC250 79 54     42%   79 29.69 29.69      
Jun 06 00:53 3 10 Clear CLR 60 46     60%     30.04 30.04      
Jun 05 20:53 NW 6 10 Clear CLR 65 46     50%     30.05 30.05      
Jun 05 19:53 NW 6 10 Mostly Cloudy BKN200 67 47     49%     30.05 30.05      
Jun 05 15:53 WNW 9 10 Mostly Cloudy BKN250 71 45     39%   70 30.08 30.07